[[{"header":{"parameterUnit":"m.s-1","parameterCategory":1,"la1":30.2992,"la2":30.254,"lo1":-89.0895,"lo2":-89.0443,"dy":0.0025,"dx":0.0025,"nx":19,"ny":19,"refTime":"2026-05-10T21:00:00:Z","depth":0,"parameterNumber":2,"parameterNumberName":"U-component_of_WINDS"},"data":[0,0,0,0.5886,0.5888,0.598,0.598,0.608,0.6081,0,0,0,0,0,0,0,0,0,0,0,0.5849,0.5849,0.5886,0.5888,0.598,0.598,0.608,0.6081,0,0,0,0,0,0,0,0,0,0,0,0.5849,0.5849,0.585,0.5888,0.598,0.598,0.608,0.6016,0,0,0,0,0,0,0,0,0,0,0.593,0.5886,0.5849,0.585,0.5889,0.5979,0.598,0.6014,0.602,0.6031,0,0.6039,0,0.6061,0.6086,0.6087,0,0,0,0.5895,0.5881,0.5915,0.585,0.5889,0.5979,0.594,0.6018,0.6025,0.604,0.604,0.6044,0.6063,0.6087,0.6087,0.6126,0.6125,0,0,0.589,0.586,0.5909,0.5919,0.5905,0.5937,0.5943,0.6022,0.602,0.6041,0.6047,0.6064,0.6087,0.6088,0.6126,0.6126,0,0,0,0.5871,0.5856,0.5888,0.5914,0.5932,0.594,0.5946,0.6017,0.603,0.6048,0.6066,0.6088,0.6089,0.6126,0.6126,0.6087,0,0,0,0.5868,0.5845,0.5886,0.5868,0.5931,0.5976,0.5939,0.6025,0.6035,0.6065,0.6088,0.609,0.6126,0.6126,0.6089,0.6074,0,0,0,0.5846,0.5842,0.5852,0.5866,0.5905,0.5975,0.5993,0.6027,0.6045,0.6087,0.609,0.6126,0.6126,0.609,0.6076,0.6074,0,0,0,0.5814,0.5817,0.5851,0.5862,0.5904,0.5952,0.5993,0.603,0.6062,0.6088,0.6126,0.6126,0.6091,0.6078,0.6075,0.6065,0.6058,0,0,0.5801,0.5815,0.5823,0.5856,0.589,0.594,0.5969,0.6026,0.6058,0.6101,0.6102,0.6088,0.6076,0.6074,0.6036,0.6031,0,0,0,0.5809,0.5814,0.583,0.5859,0.5903,0.5939,0.5996,0.6017,0.6055,0.6074,0.6089,0.6083,0.6083,0.6079,0.6074,0.6075,0.6123,0.6123,0.6124,0.5745,0.5786,0.5802,0.5854,0.5881,0.594,0.5965,0.6003,0.6037,0.6039,0.6052,0.6024,0.6019,0.6016,0.6016,0.6052,0.6051,0.6051,0.6051,0.5728,0.5741,0.5786,0.5817,0.586,0.5887,0.5943,0.5966,0.5996,0.6018,0.602,0.6039,0.6008,0.6011,0.6049,0.6049,0.605,0.605,0.605,0.5689,0.5702,0.5729,0.5775,0.5805,0.5858,0.5885,0.5924,0.596,0.5962,0.5978,0.5979,0.5982,0.5967,0.5967,0.5967,0.5967,0.5967,0.5967,0.5637,0.5668,0.5687,0.5734,0.5758,0.5793,0.5852,0.5876,0.5912,0.5938,0.5938,0.5969,0.5999,0.6004,0.5966,0.5966,0.5966,0.5966,0.5966,0.56,0.5615,0.5643,0.5666,0.5725,0.5752,0.5802,0.5847,0.5872,0.5884,0.5916,0.5932,0.5948,0.5952,0.5957,0.5908,0.5908,0.5908,0.5908,0.5565,0.5578,0.5615,0.565,0.5689,0.5737,0.5766,0.5812,0.5861,0.5879,0.5892,0.5902,0.5905,0.5919,0.5924,0.5929,0.5874,0.5874,0.5874,0.5544,0.5562,0.558,0.563,0.5679,0.572,0.5748,0.5785,0.5844,0.5874,0.5893,0.5895,0.5911,0.5915,0.5942,0.5949,0.5958,0,0]},{"header":{"parameterUnit":"m.s-1","parameterCategory":1,"la1":30.2992,"la2":30.254,"lo1":-89.0895,"lo2":-89.0443,"dy":0.0025,"dx":0.0025,"nx":19,"ny":19,"refTime":"2026-05-10T21:00:00:Z","depth":0,"parameterNumber":3,"parameterNumberName":"V-component_of_WINDS"},"data":[0,0,0,2.8679,2.868,2.8744,2.8744,2.8821,2.8821,0,0,0,0,0,0,0,0,0,0,0,2.8659,2.8659,2.8679,2.868,2.8744,2.8744,2.8821,2.8821,0,0,0,0,0,0,0,0,0,0,0,2.8659,2.8659,2.866,2.868,2.8744,2.8744,2.882,2.8774,0,0,0,0,0,0,0,0,0,0,2.8712,2.8694,2.8659,2.866,2.8681,2.8744,2.8744,2.8771,2.8776,2.879,0,2.8805,0,2.8814,2.8826,2.8827,0,0,0,2.868,2.8689,2.8708,2.866,2.8681,2.8744,2.8715,2.8774,2.878,2.8797,2.8806,2.8809,2.8816,2.8827,2.8827,2.8914,2.8914,0,0,2.8676,2.8669,2.8704,2.8711,2.8704,2.8713,2.8717,2.8778,2.8786,2.8806,2.881,2.8817,2.8827,2.8828,2.8914,2.8914,0,0,0,2.8666,2.8667,2.8684,2.8708,2.872,2.8715,2.872,2.8783,2.8789,2.8811,2.8818,2.8828,2.8829,2.8913,2.8914,2.8929,0,0,0,2.8664,2.8661,2.8682,2.8678,2.8719,2.8753,2.8723,2.8785,2.8792,2.8817,2.8828,2.883,2.8913,2.8913,2.8927,2.8936,0,0,0,2.8655,2.866,2.8669,2.8678,2.8705,2.8752,2.8762,2.8787,2.8796,2.8827,2.883,2.8912,2.8913,2.8926,2.8935,2.8958,0,0,0,2.8642,2.8679,2.8669,2.8713,2.8705,2.8761,2.8762,2.8803,2.8831,2.8828,2.8913,2.8914,2.8926,2.8933,2.8957,2.8978,2.8986,0,0,2.8685,2.8684,2.8711,2.8704,2.8761,2.8752,2.881,2.8841,2.8849,2.8891,2.8894,2.8928,2.8934,2.8958,2.9031,2.9037,0,0,0,2.8722,2.8741,2.8758,2.8786,2.8812,2.8835,2.8858,2.887,2.8906,2.887,2.8942,2.8947,2.8961,2.8971,2.8976,2.8989,2.8918,2.8918,2.8918,2.8772,2.8783,2.8827,2.8846,2.8873,2.8897,2.8919,2.8939,2.894,2.8956,2.8969,2.9012,2.9024,2.9028,2.9041,2.898,2.898,2.898,2.898,2.8836,2.8866,2.8868,2.8913,2.8923,2.8959,2.8984,2.8984,2.9019,2.9003,2.9016,2.8999,2.9035,2.9047,2.8982,2.8981,2.8981,2.8981,2.8981,2.8871,2.8887,2.8902,2.8944,2.8975,2.8991,2.9026,2.9033,2.9039,2.9052,2.9067,2.9067,2.9068,2.9059,2.9059,2.9059,2.9059,2.9059,2.9059,2.8901,2.8918,2.8947,2.898,2.8999,2.9025,2.905,2.9069,2.9091,2.9093,2.9094,2.9093,2.9037,2.9023,2.9062,2.9061,2.9061,2.9061,2.9061,2.8964,2.8952,2.8997,2.9017,2.9055,2.9086,2.9095,2.9132,2.9148,2.9165,2.9162,2.9118,2.9117,2.9113,2.9102,2.9159,2.9159,2.9159,2.9159,2.8994,2.8995,2.9044,2.9075,2.9106,2.9119,2.9169,2.9188,2.9206,2.9217,2.9209,2.9195,2.919,2.9192,2.9186,2.9175,2.925,2.925,2.925,2.9034,2.9038,2.908,2.91,2.9131,2.9157,2.9204,2.9238,2.9255,2.9254,2.9225,2.9222,2.9198,2.9189,2.9188,2.9179,2.916,0,0]}]]